Probability
0 0 0 0 0 0 0 0 0 0 0 0 1 1 1 0 0 0 0 0 0 0 0 0 0 0 0 0 0 0 0 0 0 0 0 0 0 0 0 0 0 0 0
0 0 0 0 0 0 0 0 0 0 0 0 0 0 0 0 0 0 0 0 0 0 0 0 0 0 0 0 0 0 0 0 0 0 0 0 0 0 0 0 0 0 0
0 0 0 0 0 0 0 0 0 0 0 0 0 0 0 0 0 0 0 0 0 0 0 0 0 0 0 0 0 0 0 0 0 0 0 0 0 0 0 0 0 0 0
0 0 0 0 0 0 0 0 0 0 0 0 0 0 0 0 0 0 0 0 0 0 0 0 0 0 0 0 0 0 0 0 0 0 0 0 0 0 0 0 0 0 0
0 0 0 0 0 0 0 0 0 0 0 0 0 0 0 0 0 0 0 0 0 0 0 0 0 0 0 0 0 0 0 0 0 0 0 0 0 0 0 0 0 0 0
0 0 0 0 0 0 0 0 0 0 0 0 0 0 0 0 0 0 0 0 0 0 0 0 0 0 0 0 0 0 0 0 0 0 0 0 0 0 0 0 0 0 0
0 0 0 0 0 0 0 0 0 0 0 0 0 0 0 0 0 0 0 0 0 0 0 0 0 0 0 0 0 0 0 0 0 0 0 0 0 0 0 2 4 4 2
0 0 0 0 0 0 0 0 0 0 0 0 0 0 0 0 0 0 0 0 0 0 0 0 0 0 0 0 0 0 0 0 0 0 0 0 0 0 1 6 13 13 7
0 0 0 0 0 0 0 0 0 0 0 0 0 0 0 0 0 0 0 0 0 0 0 0 0 0 0 0 0 0 0 0 0 0 0 0 0 0 1 8 17 18 13
0 0 0 0 0 0 0 0 0 0 0 0 0 0 0 0 0 0 0 0 0 0 0 0 0 0 0 0 0 0 0 0 0 0 0 0 0 0 1 4 13 20 17
0 0 0 0 0 0 0 0 0 0 0 0 0 0 0 0 0 0 0 0 0 0 0 0 0 0 0 0 0 0 0 0 0 0 0 0 0 0 0 1 8 18 22
0 0 0 0 0 0 0 0 0 0 0 0 0 0 0 0 0 0 0 0 0 0 0 0 0 0 0 0 0 0 0 0 0 0 0 0 0 0 0 1 4 12 20
0 0 0 0 0 0 0 0 0 0 0 0 0 0 0 0 0 0 0 0 0 0 0 0 0 0 0 0 0 0 0 0 0 0 0 0 0 0 0 1 4 9 13
0 0 0 0 0 0 0 0 0 0 0 0 0 0 0 0 0 0 0 0 0 0 0 0 0 0 0 0 0 0 0 0 0 0 0 0 0 0 0 0 2 5 7
0 0 0 0 0 0 0 0 0 0 0 0 0 0 0 0 0 0 0 0 0 0 0 0 0 0 0 0 0 0 0 0 0 0 0 0 0 0 0 0 0 2 3
0 0 0 0 0 0 0 0 0 0 0 0 0 0 0 0 0 0 0 0 0 0 0 0 0 0 0 0 0 0 0 0 0 0 0 0 0 0 0 0 0 0 1
0 0 0 0 0 0 0 0 0 0 0 0 0 0 0 0 0 0 0 0 0 0 0 0 0 0 0 0 0 0 0 0 0 0 0 0 0 0 0 0 0 0 0
0 0 0 0 1 1 1 0 0 0 0 0 0 0 0 0 0 0 0 0 0 0 0 0 0 0 0 0 0 0 0 0 0 0 0 0 0 0 0 0 0 0 0
0 0 0 2 5 8 6 1 0 0 0 0 0 0 0 0 0 0 0 0 0 0 0 0 0 0 0 0 0 0 0 0 0 0 0 0 0 0 0 0 0 0 0
2 1 3 9 19 24 15 4 0 0 0 0 0 0 0 0 0 0 0 0 0 0 0 0 0 0 0 0 0 0 0 0 0 0 0 0 0 0 0 0 0 0 0
5 2 4 13 24 28 20 10 5 3 1 0 0 0 0 0 0 0 0 0 0 0 0 0 0 0 0 0 0 0 0 0 0 0 0 0 0 0 0 0 0 0 0
6 2 2 6 11 14 13 11 9 6 2 0 0 0 0 0 0 0 0 0 0 0 0 1 1 1 0 0 0 0 0 0 0 0 0 0 0 0 0 0 0 0 0
3 1 0 0 0 1 3 6 10 13 9 3 0 0 0 0 1 1 1 0 0 1 1 1 1 1 0 0 0 0 0 0 0 0 0 0 0 0 0 0 0 0 0
1 0 0 0 0 0 0 1 10 19 15 4 0 0 0 0 0 0 0 0 0 1 2 2 1 0 0 0 0 0 0 0 0 0 0 0 0 0 0 0 0 0 0
0 0 0 0 0 0 0 1 5 10 8 3 0 0 0 0 0 0 0 0 0 1 1 1 1 0 0 0 0 0 0 0 0 0 0 0 0 0 0 0 0 0 0
0 0 0 0 0 0 0 0 0 0 0 0 0 0 0 0 0 1 1 1 0 0 1 1 1 0 0 0 0 0 0 0 0 0 0 0 0 0 0 0 0 0 0
Wind_Speed
5 7 12 14 14 13 12 12 12 11 11 12 15 16 16 15 15 14 13 12 10 9 9 10 10 10 10 10 10 11 12 12 11 11 12 12 12 11 12 12 11 9 11
8 7 14 15 15 14 13 12 13 12 12 12 12 13 14 14 14 14 13 11 10 9 9 9 10 11 11 10 10 11 11 12 11 10 10 10 10 9 10 11 10 9 10
10 6 10 15 15 15 14 12 13 14 14 13 13 13 13 13 13 13 11 10 10 9 8 8 8 10 12 11 11 10 10 9 10 11 9 5 5 8 9 9 10 10 9
9 5 6 14 15 15 14 13 12 13 14 13 13 12 12 12 11 11 10 9 9 9 7 8 9 8 10 11 10 10 9 8 9 9 6 4 5 9 10 9 9 9 7
8 6 7 14 14 15 14 12 12 13 13 13 12 11 10 10 10 9 8 7 8 8 7 7 9 9 9 9 9 8 9 8 8 6 3 3 4 9 10 9 8 8 7
9 6 9 14 14 14 14 13 12 12 13 12 11 10 9 9 8 8 7 6 6 6 7 7 6 7 9 9 8 6 6 8 7 3 3 3 4 6 9 9 9 8 8
9 7 9 14 14 14 13 12 11 12 13 12 11 10 9 9 9 8 7 6 5 5 6 8 7 6 6 6 7 6 5 3 4 1 3 3 3 6 9 9 9 9 9
7 7 7 14 15 14 13 13 12 12 13 13 12 11 10 9 9 8 7 6 6 6 6 6 7 7 7 6 5 5 4 3 2 0 2 4 6 7 9 9 10 10 10
6 5 5 6 11 14 13 12 12 11 11 11 12 11 10 8 7 6 6 6 7 7 7 7 7 7 6 6 6 5 4 4 1 1 2 2 6 9 10 10 10 11 11
5 5 4 4 4 5 7 12 13 13 12 11 10 10 9 7 7 7 5 6 7 8 8 8 8 8 8 7 7 7 7 4 3 2 2 3 6 8 11 11 12 12 12
5 3 4 5 4 3 3 6 9 11 11 10 8 9 7 3 3 4 4 6 7 7 8 8 8 8 8 8 8 9 7 3 4 4 3 7 9 9 11 12 12 13 13
10 7 5 5 6 5 3 2 2 3 4 4 4 4 2 2 2 3 5 8 8 8 8 8 8 7 6 3 4 6 4 4 4 5 5 10 12 12 12 12 14 15 15
13 10 8 7 6 5 3 2 1 1 2 3 4 3 2 2 2 3 2 3 3 4 2 3 4 3 4 3 3 3 4 4 4 5 7 13 13 15 15 14 15 17 18
11 12 10 7 5 4 3 2 2 2 3 3 3 4 3 2 3 3 2 2 2 1 1 2 2 3 4 5 4 5 5 5 5 4 7 14 14 15 17 17 17 18 20
12 10 8 6 5 4 3 2 3 3 4 3 3 5 5 4 3 3 3 3 3 2 2 2 2 3 4 5 5 6 6 6 6 4 4 12 13 14 17 19 18 19 20
9 9 8 7 6 5 4 4 3 4 4 4 5 6 6 4 4 4 4 4 4 4 3 3 4 3 3 4 4 5 5 4 5 5 4 7 13 15 16 16 17 18 19
8 8 9 9 7 5 5 5 4 5 5 5 6 6 7 6 5 5 5 4 4 3 3 3 3 2 2 3 3 3 4 4 4 5 4 4 6 11 15 16 16 16 17
8 8 8 8 9 8 7 6 4 5 5 6 6 5 7 7 6 4 4 4 3 3 2 3 2 1 2 3 3 3 2 3 4 4 4 4 3 5 9 15 16 14 15
8 7 8 8 10 11 9 6 5 6 7 7 6 4 5 6 5 5 4 4 3 2 3 3 2 1 2 3 3 3 2 3 3 3 3 4 5 5 5 10 13 12 12
2 4 6 7 8 11 9 7 6 6 6 5 4 5 6 6 6 4 4 4 3 2 3 3 3 2 2 2 3 3 3 4 3 3 4 5 6 7 6 6 6 5 10
3 3 0 5 9 10 9 9 9 7 5 4 4 6 6 6 5 5 4 4 4 4 4 3 2 2 2 0 1 3 3 3 4 4 3 4 5 5 5 5 3 2 4
8 11 13 11 8 5 5 6 7 7 5 4 3 4 5 5 5 5 5 5 5 4 4 4 3 2 1 2 1 1 3 4 3 3 3 3 4 4 4 5 5 5 4
7 10 12 15 13 8 3 5 8 10 7 5 3 3 4 4 4 6 7 6 5 5 4 4 5 4 2 2 3 2 1 2 3 3 3 4 4 4 4 4 5 5 5
4 6 7 8 8 7 6 7 14 8 9 6 4 3 3 4 4 5 5 5 5 4 4 3 3 3 3 2 2 3 3 2 2 4 4 4 4 4 3 3 4 5 5
4 4 4 4 6 5 6 7 9 2 4 5 1 0 2 2 3 3 4 4 5 4 4 3 3 4 3 3 3 3 3 3 4 4 4 5 4 3 2 3 3 3 5
5 6 7 5 4 4 6 9 6 5 5 2 0 3 2 1 2 1 2 4 4 4 3 4 4 4 3 3 3 4 4 4 4 4 5 4 5 4 3 3 2 3 4
Wind_Direction
158 160 153 146 140 135 132 129 122 118 117 116 125 134 137 137 135 133 131 128 125 117 110 116 125 125 115 105 102 106 122 131 134 138 133 127 124 120 115 110 106 103 102
149 160 158 148 146 143 139 134 129 126 125 124 127 132 135 136 136 136 136 133 127 120 116 125 135 139 133 126 124 126 134 139 144 142 135 130 124 122 119 115 110 106 106
140 153 158 150 150 147 144 140 137 139 136 135 135 135 136 138 141 139 138 136 130 124 124 129 139 142 138 136 137 138 142 146 146 142 133 122 128 128 125 117 111 107 108
136 133 149 151 150 149 149 147 145 143 141 140 138 138 142 145 145 143 142 140 133 128 131 134 138 139 139 142 144 144 143 142 143 142 139 150 153 140 135 129 121 115 114
131 131 153 152 151 151 152 154 152 148 148 149 149 146 148 146 145 145 150 151 138 132 134 134 137 142 141 147 149 150 150 149 148 149 158 144 143 148 147 145 138 128 122
133 138 155 153 151 152 154 156 158 158 158 160 162 163 159 153 152 154 159 160 148 140 141 142 142 147 146 152 155 154 159 158 140 156 185 169 161 170 166 163 158 148 142
141 142 144 152 152 153 158 159 164 166 168 171 171 171 171 170 171 175 179 178 169 161 159 155 157 159 159 167 166 169 189 174 120 153 189 197 207 204 188 181 175 166 162
138 127 138 152 154 156 161 162 167 172 173 176 179 179 181 186 190 189 188 194 196 193 187 177 171 176 183 194 201 203 220 247 108 29 206 218 222 223 209 197 185 178 179
140 133 135 148 158 162 164 164 165 170 172 176 179 180 183 189 196 205 203 209 211 208 206 204 197 197 203 206 215 226 240 256 244 285 321 265 235 226 219 207 196 192 191
148 152 147 146 148 155 169 174 176 175 174 175 175 174 177 183 190 200 200 216 219 219 219 221 220 221 221 225 232 237 243 248 245 262 289 290 270 244 228 217 208 202 200
159 172 164 156 150 149 165 190 183 184 181 180 180 180 176 176 190 196 193 212 224 229 231 235 238 243 245 242 242 249 253 245 253 257 256 268 274 268 241 230 221 213 207
182 191 184 184 172 160 180 203 185 199 182 184 191 194 175 185 207 208 206 217 225 230 229 231 237 241 249 249 260 260 257 254 256 257 251 255 263 268 261 238 226 222 218
179 188 189 198 182 163 174 180 173 194 195 191 205 205 198 209 226 226 224 239 236 237 241 262 249 243 243 229 225 242 254 258 256 259 256 257 256 259 261 248 230 223 223
181 193 192 187 177 168 162 172 179 188 210 213 214 205 208 223 235 237 240 252 249 254 251 250 252 264 265 261 243 240 246 256 253 253 259 265 268 267 267 261 247 236 229
187 187 194 176 178 172 172 170 183 200 208 213 223 217 213 221 236 239 245 241 230 223 235 253 257 259 259 258 255 252 253 263 266 258 266 275 278 278 277 272 260 251 244
189 187 182 181 178 171 181 187 189 207 209 207 220 225 224 222 235 232 233 241 234 229 226 230 252 259 268 266 263 259 264 273 280 284 285 292 294 292 288 281 270 262 255
188 187 185 180 164 170 188 202 189 199 208 214 226 225 224 222 230 236 226 228 231 236 239 235 250 257 277 277 269 275 284 293 293 292 289 285 293 299 297 291 280 268 259
183 184 178 181 164 174 195 202 196 192 200 218 224 221 224 223 215 222 228 229 241 250 236 229 213 233 281 283 283 284 290 303 301 299 294 293 297 295 294 289 285 277 266
183 174 171 181 177 183 195 191 196 202 206 218 219 211 226 231 216 205 218 224 218 240 240 222 195 209 260 272 283 287 286 297 307 309 302 306 305 301 290 282 286 289 283
162 162 179 177 182 186 182 175 183 194 201 195 207 213 211 208 210 199 211 219 198 222 232 217 207 202 254 289 300 287 267 266 281 289 302 314 315 315 312 302 297 298 300
5 2 60 188 201 190 180 176 179 185 176 167 188 217 218 206 198 188 192 198 202 217 226 218 200 209 243 248 316 312 296 275 266 261 268 299 315 321 323 323 328 324 308
21 17 23 6 327 278 209 182 165 152 157 152 183 227 224 203 195 194 183 200 200 218 228 217 196 188 234 197 152 338 332 334 312 274 263 281 307 323 343 353 352 347 337
49 51 53 50 34 20 339 210 176 150 148 144 177 202 220 217 211 201 195 196 194 209 220 206 198 194 216 213 190 204 269 291 309 302 284 287 309 327 341 359 349 349 350
57 81 86 94 84 56 25 292 237 165 139 151 173 177 184 197 222 219 194 192 197 205 213 208 202 198 194 223 201 216 230 214 271 305 304 298 299 303 326 337 340 353 347
202 166 128 106 82 55 36 22 313 338 108 120 159 58 269 206 193 218 222 210 212 208 206 210 212 202 195 206 193 193 195 206 224 234 285 307 303 281 292 304 320 342 344
240 186 174 164 128 50 21 20 325 355 339 63 213 225 221 194 113 149 262 239 228 228 214 208 216 210 204 209 203 200 189 191 203 210 243 276 286 284 291 288 317 337 347